Regional Weather Roundup
Issued by NWS

Home | Current Version | Previous Version | Text Only | Print | Product List | Glossary On
Versions: 1 2 3 4 5 6 7 8 9 10 11 12 13 14 15 16 17 18 19 20 21 22 23 24 25 26 27 28 29 30 31 32 33 34 35 36 37 38 39 40 41 42 43 44 45 46 47 48 49 50
000
ASUS45 KPSR 271900
RWRAZ

PRELIMINARY ARIZONA REGIONAL HOURLY WEATHER ROUNDUP
NATIONAL WEATHER SERVICE PHOENIX AZ
1200 PM MST TUE JAN 27 2015

NOTE: FAIR INDICATES FEW OR NO CLOUDS BELOW 12,000 FEET WITH NO
SIGNIFICANT WEATHER AND/OR OBSTRUCTIONS TO VISIBILITY.

AZZ001>003-036-272000-
NORTHWEST ARIZONA

CITY           SKY/WX    TMP DP  RH WIND       PRES   REMARKS
KINGMAN        MOSUNNY   58  46  64 W3        30.28F
$$

AZZ004>008-015-016-018-272000-
NORTH CENTRAL ARIZONA

CITY           SKY/WX    TMP DP  RH WIND       PRES   REMARKS
GRAND CANYON   CLOUDY    47  43  86 SW8       30.35F
PRESCOTT       PTSUNNY   56  40  55 S8        30.31F
FLAGSTAFF      NOT AVBL
PAYSON         LGT RAIN  48  37  66 S3        30.36S
$$

AZZ009>014-017-272000-
NORTHEAST ARIZONA

CITY           SKY/WX    TMP DP  RH WIND       PRES   REMARKS
WINSLOW        MOSUNNY   60  37  42 E9        30.30F
SAINT JOHNS    SUNNY     57  38  48 CALM      30.32F
WINDOW ROCK    MOSUNNY   55  31  39 SW9       30.36F
SHOW LOW       PTSUNNY   54  36  50 SW14      30.37F
$$

AZZ023-272000-
GREATER PHOENIX AREA

CITY           SKY/WX    TMP DP  RH WIND       PRES   REMARKS
PHOENIX        PTSUNNY   64  49  57 E5        30.24F
GLENDALE       PTSUNNY   66  52  59 E7        30.25F
DEER VALLEY    PTSUNNY   65  45  48 CALM      30.23F
SCOTTSDALE     MOSUNNY   64  51  62 CALM      30.25F
MESA-FALCON    PTSUNNY   63  48  59 N12       30.23F
MESA-GATEWAY   MOSUNNY   63  48  59 SE5       30.26F
$$

AZZ027-028-272000-
SOUTHWEST MARICOPA COUNTY AND PINAL COUNTY

CITY           SKY/WX    TMP DP  RH WIND       PRES   REMARKS
CASA GRANDE    PTSUNNY   63  50  63 CALM      30.24F
GILA BEND      MOCLDY    65  51  58 N5        30.21F
$$

AZZ503-504-507>509-272000-
SOUTHEAST ARIZONA

CITY           SKY/WX    TMP DP  RH WIND       PRES   REMARKS
TUCSON         MOSUNNY   68  43  40 CALM      30.25F
DAVIS-MONTHAN  MOSUNNY   68  42  37 NW3       30.23F
RYAN FIELD       N/A     68  52  56 E3        30.25F
NOGALES        MOSUNNY   67  46  47 CALM      30.26F
SIERRA VISTA   MOSUNNY   64  37  36 E6        30.29F
SAFFORD        SUNNY     65  33  30 S7        30.26F
$$

AZZ020-021-025-026-031-272000-
SOUTHWEST ARIZONA

CITY           SKY/WX    TMP DP  RH WIND       PRES   REMARKS
YUMA           PTSUNNY   65  54  67 NE10      30.22F
$$

CAZ031-033-041-043-047-048-061-272000-
SOUTHERN CALIFORNIA

CITY           SKY/WX    TMP DP  RH WIND       PRES   REMARKS
DOWNTOWN L.A.  SUNNY     69  51  52 CALM      30.19S
L.A. AIRPORT   MOSUNNY   67  55  65 CALM      30.19F
SAN DIEGO      MOSUNNY   71  47  42 CALM      30.19F
BURBANK        SUNNY     66  52  60 CALM      30.19F
ONTARIO        MOSUNNY   66  50  56 SE5       30.20F
RIVERSIDE      MOSUNNY   66  52  60 VRB5      30.20F
PALM SPRINGS   MOSUNNY   64  52  64 CALM      30.25F
EL CENTRO NAS  PTSUNNY   63  55  75 W5        30.24F
IMPERIAL       CLOUDY    63  54  72 NW3       30.23F
BLYTHE         SUNNY     63  56  78 CALM      30.24F
$$

NVZ020-UTZ003-272000-
SOUTHERN NEVADA-UTAH

CITY           SKY/WX    TMP DP  RH WIND       PRES   REMARKS
LAS VEGAS      PTSUNNY   57  48  72 CALM      30.23F
SALT LAKE CITY CLOUDY    51  35  54 SE14      30.20F
$$

NMZ009-TXZ055-272000-
NEW MEXICO-WEST TEXAS

CITY           SKY/WX    TMP DP  RH WIND       PRES   REMARKS
ALBUQUERQUE    PTSUNNY   50  27  40 S5        30.35F
EL PASO        MOSUNNY   62  30  29 VRB3      30.29F
$$


........................KEY........................
SKY/WX - SKY CONDITION/WEATHER
TMP    - TEMPERATURE IN FAHRENHEIT
DP     - DEW POINT IN FAHRENHEIT
RH     - RELATIVE HUMIDITY IN PERCENT
WIND   - DIRECTION AND SPEED IN MILES PER HOUR (MPH)
VRB    - VARIABLE WIND DIRECTION
PRES   - MEAN SEA LEVEL PRESSURE IN INCHES OF MERCURY
         F - FALLING PRESSURE   R - RISING PRESSURE
         S - STEADY PRESSURE
VSB    - VISIBILITY IN MILES
HX     - HEAT INDEX IN FAHRENHEIT
WCI    - WIND CHILL INDEX IN FAHRENHEIT
TC     - TEMPERATURE IN CELSIUS WHICH IS ALSO KNOWN AS
         TEMPERATURE IN CENTIGRADE
AFB    - AIR FORCE BASE
         LUKE AFB IS LUKE AIR FORCE BASE
         DAVIS-MONTHAN IS DAVIS-MONTHAN AIR FORCE BASE
NAS    - NAVAL AIR STATION
         EL CENTRO NAS IS EL CENTRO NAVAL AIR STATION
N/A    - NOT AVAILABLE


USA.gov is the U.S. government's official web portal to all federal, state and local government web resources and services.